Location: Baia Mare
(47.6567°N, 23.5850°E)
Time: 03:29:26
(UTC+03:00)

ISS - Pass Details

Date: 09 May 2018
Orbit: 403 x 408 km, 51.6° (Epoch: 19 October)

Event Time Altitude Azimuth Distance (km) Brightness Sun altitude
Exits shadow 04:13:52 32° 233° (SW) 715 -3.2 -14.5°
Maximum altitude 04:15:13 75° 154° (SSE) 421 -3.9 -14.4°
Drops below altitude 10° 04:18:29 10° 68° (ENE) 1,462 0.1 -14.0°
Sets 04:20:34 0° 67° (ENE) 2,326 1.4 -13.8°
